EW8714 Weather Reports


Display with metric or nautical units.
time (UTC)temp
F
wind
direction
speed
MPH
gust
MPH
rain 1hr
in
rain 24hr
in
rain mn
in
humidity
%
barometer
mb
20260505024521 52 336 0.0 3.0 0.00 0.00 0.00 72 1010.9
20260505024020 53 335 0.0 4.0 0.00 0.00 0.00 71 1010.9
20260505023620 53 335 1.0 4.0 0.00 0.00 0.00 70 1010.8
20260505023025 53 337 1.0 4.0 0.00 0.00 0.00 69 1010.6
20260505022523 53 335 1.0 4.0 0.00 0.00 0.00 69 1010.4
20260505022029 53 335 0.0 4.0 0.00 0.00 0.00 69 1010.3
20260505021528 53 335 1.0 5.0 0.00 0.00 0.00 69 1010.4
20260505021020 53 338 1.0 7.0 0.00 0.00 0.00 69 1010.5
20260505020520 53 336 2.0 7.0 0.00 0.00 0.00 70 1010.8
20260505020025 53 352 1.0 6.0 0.00 0.00 0.00 70 1010.8
20260505015525 53 349 2.0 6.0 0.00 0.00 0.00 69 1010.6
20260505015029 53 1 3.0 7.0 0.00 0.00 0.00 68 1010.6
20260505014525 54 1 2.0 11.0 0.00 0.00 0.00 67 1010.4
20260505014029 55 1 5.0 11.0 0.00 0.00 0.00 64 1010.3
20260505013522 56 356 4.0 8.0 0.00 0.00 0.00 59 1010.3
20260505013022 56 10 2.0 7.0 0.00 0.00 0.00 59 1010.3
20260505012522 56 3 2.0 8.0 0.00 0.00 0.00 57 1010.4
20260505012022 57 1 4.0 8.0 0.00 0.00 0.00 56 1010.2
20260505011526 58 4 2.0 8.0 0.00 0.00 0.00 54 1010.2
20260505011024 58 359 2.0 6.0 0.00 0.00 0.00 51 1010.2
20260505010524 58 359 2.0 6.0 0.00 0.00 0.00 49 1010.2
20260505010023 58 356 2.0 6.0 0.00 0.00 0.00 48 1010.1
20260505005524 59 355 2.0 6.0 0.00 0.00 0.00 46 1010.0
20260505005022 59 354 1.0 5.0 0.00 0.00 0.00 46 1010.0
20260505004506 59 359 1.0 6.0 0.00 0.00 0.00 46 1009.8
20260505004006 59 1 2.0 8.0 0.00 0.00 0.00 46 1009.6
20260505003511 59 360 3.0 8.0 0.00 0.00 0.00 46 1009.7
20260505003006 59 5 2.0 7.0 0.00 0.00 0.00 47 1009.5
20260505002510 59 6 3.0 7.0 0.00 0.00 0.00 47 1009.6
20260505002006 59 1 2.0 10.0 0.00 0.00 0.00 47 1009.6
20260505001506 60 360 4.0 10.0 0.00 0.00 0.00 46 1009.7
20260505001004 60 329 4.0 10.0 0.00 0.00 0.00 45 1009.7
20260505000505 61 348 3.0 9.0 0.00 0.00 0.00 43 1009.4
20260505000019 61 7 2.0 6.0 0.00 0.00 0.00 39 1009.3
20260504235508 62 7 2.0 5.0 0.00 0.00 0.00 39 1009.3
20260504235008 61 2 2.0 10.0 0.00 0.00 0.00 39 1009.4
20260504234506 61 360 3.0 10.0 0.00 0.00 0.00 39 1009.3
20260504234006 61 328 2.0 9.0 0.00 0.00 0.00 40 1009.4
20260504233505 61 359 3.0 9.0 0.00 0.00 0.00 40 1009.5
20260504233007 61 360 2.0 8.0 0.00 0.00 0.00 41 1009.4
20260504232508 61 349 3.0 14.0 0.00 0.00 0.00 43 1009.3
20260504232005 62 359 8.0 16.0 0.00 0.00 0.00 42 1009.3
20260504231511 62 359 10.0 16.0 0.00 0.00 0.00 39 1009.4
20260504231010 63 304 9.0 16.0 0.00 0.00 0.00 38 1009.2
20260504230509 63 352 2.0 5.0 0.00 0.00 0.00 34 1009.2
20260504230013 63 351 1.0 5.0 0.00 0.00 0.00 33 1009.2
20260504225510 63 1 1.0 4.0 0.00 0.00 0.00 34 1009.2
20260504225014 63 2 1.0 5.0 0.00 0.00 0.00 33 1009.1
20260504224518 63 2 2.0 8.0 0.00 0.00 0.00 33 1008.9
20260504224013 63 8 2.0 9.0 0.00 0.00 0.00 32 1008.8
20260504223513 64 1 4.0 9.0 0.00 0.00 0.00 32 1008.5
20260504223014 64 1 4.0 11.0 0.00 0.00 0.00 32 1008.4
20260504222513 64 12 4.0 11.0 0.00 0.00 0.00 32 1008.4
20260504222016 64 2 3.0 10.0 0.00 0.00 0.00 32 1008.3
20260504221511 65 1 4.0 14.0 0.00 0.00 0.00 31 1008.3
20260504221011 66 6 5.0 14.0 0.00 0.00 0.00 31 1008.3
20260504220512 66 353 4.0 12.0 0.00 0.00 0.00 31 1008.1
20260504220020 67 7 4.0 14.0 0.00 0.00 0.00 29 1008.0
20260504215515 67 26 6.0 14.0 0.00 0.00 0.00 29 1007.9
20260504215015 67 359 6.0 14.0 0.00 0.00 0.00 30 1007.9
20260504214522 67 1 7.0 16.0 0.00 0.00 0.00 30 1008.0
20260504214019 67 57 5.0 16.0 0.00 0.00 0.00 29 1008.3
20260504213515 67 6 6.0 17.0 0.00 0.00 0.00 29 1008.3
20260504213018 68 359 6.0 17.0 0.00 0.00 0.00 29 1008.5
20260504212520 68 360 7.0 15.0 0.00 0.00 0.00 29 1008.5
20260504212021 68 18 5.0 14.0 0.00 0.00 0.00 29 1008.5
20260504211526 66 323 7.0 14.0 0.00 0.00 0.00 30 1008.5
20260504211017 66 1 5.0 12.0 0.00 0.00 0.00 30 1008.7
20260504210517 67 23 6.0 14.0 0.00 0.00 0.00 27 1008.7
20260504210018 67 358 4.0 14.0 0.00 0.00 0.00 26 1008.7
20260504205518 67 250 5.0 12.0 0.00 0.00 0.00 24 1008.5
20260504205017 67 219 6.0 13.0 0.00 0.00 0.00 24 1008.5
20260504204523 67 232 6.0 13.0 0.00 0.00 0.00 24 1008.3
20260504204020 67 223 7.0 18.0 0.00 0.00 0.00 24 1008.2
20260504203521 67 181 10.0 19.0 0.00 0.00 0.00 24 1008.0
20260504203022 66 214 10.0 19.0 0.00 0.00 0.00 25 1007.9
20260504202519 66 214 10.0 19.0 0.00 0.00 0.00 26 1007.9
20260504202019 66 229 13.0 21.0 0.00 0.00 0.00 28 1008.0
20260504201520 66 229 13.0 22.0 0.00 0.00 0.00 27 1008.0
20260504201019 67 238 16.0 22.0 0.00 0.00 0.00 25 1008.1
20260504200519 69 210 12.0 22.0 0.00 0.00 0.00 23 1007.9
20260504200020 71 2 5.0 13.0 0.00 0.00 0.00 20 1007.8
20260504195520 71 1 6.0 13.0 0.00 0.00 0.00 20 1007.8
20260504195022 71 359 4.0 9.0 0.00 0.00 0.00 20 1007.8
20260504194520 72 240 5.0 9.0 0.00 0.00 0.00 17 1007.7
20260504194020 72 289 3.0 13.0 0.00 0.00 0.00 17 1007.8
20260504193521 73 297 8.0 13.0 0.00 0.00 0.00 17 1007.9
20260504193024 73 301 5.0 13.0 0.00 0.00 0.00 17 1007.7
20260504192521 74 287 5.0 12.0 0.00 0.00 0.00 18 1007.8
20260504192025 74 326 4.0 12.0 0.00 0.00 0.00 18 1007.7
20260504191526 74 309 4.0 10.0 0.00 0.00 0.00 18 1007.7
20260504191023 74 354 4.0 11.0 0.00 0.00 0.00 17 1007.7
20260504190525 74 290 6.0 16.0 0.00 0.00 0.00 18 1007.7
20260504190022 73 257 9.0 16.0 0.00 0.00 0.00 17 1007.7
20260504185522 74 279 4.0 10.0 0.00 0.00 0.00 18 1007.7
20260504185020 74 258 4.0 12.0 0.00 0.00 0.00 19 1007.7
20260504184527 74 249 5.0 12.0 0.00 0.00 0.00 19 1007.7
20260504184023 74 315 5.0 11.0 0.00 0.00 0.00 18 1007.9
20260504183522 73 359 5.0 13.0 0.00 0.00 0.00 19 1007.8
20260504183023 72 314 6.0 14.0 0.00 0.00 0.00 22 1008.0
20260504182522 71 298 10.0 18.0 0.00 0.00 0.00 21 1008.0
20260504182021 71 284 9.0 18.0 0.00 0.00 0.00 23 1008.1
20260504181532 71 258 9.0 17.0 0.00 0.00 0.00 21 1008.2
20260504181027 70 283 7.0 18.0 0.00 0.00 0.00 23 1008.3
20260504180524 70 290 12.0 19.0 0.00 0.00 0.00 22 1008.3
20260504180026 70 304 12.0 19.0 0.00 0.00 0.00 22 1008.3
20260504175528 70 281 11.0 18.0 0.00 0.00 0.00 23 1008.4
20260504175023 71 276 11.0 18.0 0.00 0.00 0.00 23 1008.5
20260504174523 70 297 11.0 19.0 0.00 0.00 0.00 23 1008.6
20260504174022 70 258 12.0 19.0 0.00 0.00 0.00 24 1008.8
20260504173522 69 307 11.0 24.0 0.00 0.00 0.00 25 1008.8
20260504173025 69 284 13.0 24.0 0.00 0.00 0.00 25 1008.9
20260504172527 69 282 12.0 21.0 0.00 0.00 0.00 25 1008.9
20260504172024 68 269 15.0 20.0 0.00 0.00 0.00 25 1008.9
20260504171523 69 283 13.0 21.0 0.00 0.00 0.00 25 1009.0
20260504171026 69 286 12.0 22.0 0.00 0.00 0.00 25 1009.0
20260504170528 69 286 12.0 22.0 0.00 0.00 0.00 25 1009.0
20260504151010 63 243 6.0 10.0 0.00 0.00 0.00 31 1009.5
20260504150510 62 245 4.0 7.0 0.00 0.00 0.00 32 1009.5
20260504141009 57 247 4.0 8.0 0.00 0.00 0.00 36 1009.6
20260504140508 56 236 5.0 8.0 0.00 0.00 0.00 36 1009.7
20260504130510 47 296 0.0 0.0 0.00 0.00 0.00 52 1009.7
20260504110513 46 299 0.0 1.0 0.00 0.00 0.00 52 1009.7
20260504100516 45 299 0.0 2.0 0.00 0.00 0.00 51 1010.1
20260504081534 46 299 0.0 2.0 0.00 0.00 0.00 50 1010.7
20260504081023 46 299 0.0 1.0 0.00 0.00 0.00 49 1010.8
20260504080523 47 299 0.0 2.0 0.00 0.00 0.00 48 1010.8
20260504050507 60 1 3.0 9.0 0.00 0.00 0.00 31 1011.1
20260504050007 60 278 3.0 6.0 0.00 0.00 0.00 29 1010.9
20260504045506 60 252 4.0 6.0 0.00 0.00 0.00 29 1010.6
20260504045006 60 250 3.0 6.0 0.00 0.00 0.00 29 1010.6
20260504044506 61 248 3.0 6.0 0.00 0.00 0.00 29 1010.7
20260504044006 61 248 4.0 7.0 0.00 0.00 0.00 29 1010.6
20260504043505 61 246 4.0 7.0 0.00 0.00 0.00 29 1010.8
20260504043009 60 231 3.0 6.0 0.00 0.00 0.00 31 1010.9
20260504042507 60 224 3.0 6.0 0.00 0.00 0.00 31 1010.8
20260504042009 61 224 3.0 7.0 0.00 0.00 0.00 30 1010.9
20260504041509 61 222 4.0 7.0 0.00 0.00 0.00 30 1010.9
20260504041008 61 220 4.0 7.0 0.00 0.00 0.00 33 1011.0
20260504040508 61 221 4.0 8.0 0.00 0.00 0.00 33 1011.1
20260504040011 61 225 5.0 8.0 0.00 0.00 0.00 30 1011.1
20260504035513 61 219 4.0 7.0 0.00 0.00 0.00 30 1011.2
20260504035011 61 220 4.0 7.0 0.00 0.00 0.00 30 1011.2
20260504034519 61 220 4.0 6.0 0.00 0.00 0.00 29 1011.3
20260504034011 61 217 4.0 6.0 0.00 0.00 0.00 31 1011.3
20260504033511 61 222 4.0 6.0 0.00 0.00 0.00 31 1011.2
20260504033020 62 221 4.0 6.0 0.00 0.00 0.00 31 1011.3
20260504032509 62 220 4.0 6.0 0.00 0.00 0.00 29 1011.3
20260504032009 63 216 4.0 6.0 0.00 0.00 0.00 28 1011.3
20260504031512 63 216 4.0 6.0 0.00 0.00 0.00 27 1011.3
20260504031011 63 214 4.0 9.0 0.00 0.00 0.00 27 1011.3
20260504030512 63 210 4.0 9.0 0.00 0.00 0.00 28 1011.2
20260504030013 62 214 4.0 6.0 0.00 0.00 0.00 28 1011.1
20260504025514 63 219 4.0 6.0 0.00 0.00 0.00 28 1011.2
20260504025015 63 252 3.0 6.0 0.00 0.00 0.00 28 1011.1